• în România
  • Lista ţărilor
  • Pe 7 zile
  • Temperatura apei
  • Hartă satelitară
  • Meteo pe hartă
  • Widget-uri
  • user-avatar
    Intrare

    Meteo pe oră la Wiktoria

    Astăzi, 22 Mai, Marţi

    Timp Temperatura Precipitaţii Vânt Presiune Umiditate
    00:00 +10°C° 0 mm 3 m/s 755 mmHg 89%
    01:00 +10°C° 0 mm 3 m/s 755 mmHg 91%
    02:00 +10°C° 0 mm 4 m/s 755 mmHg 90%
    03:00 +11°C° 0 mm 4 m/s 755 mmHg 89%
    04:00 +11°C° 0 mm 4 m/s 755 mmHg 88%
    05:00 +11°C° 0 mm 4 m/s 755 mmHg 88%
    06:00 +11°C° 0 mm 4 m/s 756 mmHg 89%
    07:00 +11°C° 0 mm 4 m/s 756 mmHg 89%
    08:00 +12°C° 0 mm 4 m/s 756 mmHg 85%
    09:00 +14°C° 0 mm 5 m/s 756 mmHg 81%
    10:00 +15°C° 0 mm 5 m/s 757 mmHg 76%
    11:00 +16°C° 0 mm 5 m/s 756 mmHg 74%
    12:00 +16°C° 0 mm 5 m/s 756 mmHg 72%
    13:00 +17°C° 0 mm 5 m/s 756 mmHg 71%
    14:00 +18°C° 0,1 mm 4 m/s 756 mmHg 72%
    15:00 +18°C° 0,1 mm 4 m/s 756 mmHg 74%
    16:00 +18°C° 0,1 mm 4 m/s 756 mmHg 76%
    17:00 +17°C° 0,1 mm 4 m/s 756 mmHg 80%
    18:00 +16°C° 0,1 mm 3 m/s 756 mmHg 84%
    19:00 +14°C° 0,1 mm 3 m/s 757 mmHg 88%
    20:00 +13°C° 0 mm 3 m/s 757 mmHg 90%
    21:00 +13°C° 0 mm 3 m/s 757 mmHg 91%
    22:00 +12°C° 0 mm 3 m/s 757 mmHg 93%
    23:00 +13°C° 0 mm 2 m/s 757 mmHg 94%

    Mâine, 23 Mai, Miercuri

    Timp Temperatura Precipitaţii Vânt Presiune Umiditate
    00:00 +12°C° 0 mm 2 m/s 757 mmHg 95%
    01:00 +12°C° 0 mm 2 m/s 757 mmHg 95%
    02:00 +12°C° 0 mm 2 m/s 757 mmHg 96%
    03:00 +12°C° 0 mm 2 m/s 758 mmHg 96%
    04:00 +10°C° 0 mm 2 m/s 758 mmHg 96%
    05:00 +10°C° 0 mm 2 m/s 758 mmHg 96%
    06:00 +10°C° 0 mm 2 m/s 758 mmHg 96%
    07:00 +10°C° 0 mm 2 m/s 758 mmHg 96%
    08:00 +13°C° 0 mm 2 m/s 759 mmHg 90%
    09:00 +14°C° 0 mm 2 m/s 759 mmHg 84%
    10:00 +16°C° 0 mm 2 m/s 759 mmHg 79%
    11:00 +16°C° 0 mm 3 m/s 759 mmHg 75%
    12:00 +17°C° 0 mm 3 m/s 758 mmHg 71%
    13:00 +18°C° 0 mm 3 m/s 758 mmHg 67%
    14:00 +17°C° 0 mm 3 m/s 757 mmHg 68%
    15:00 +17°C° 0 mm 2 m/s 757 mmHg 69%
    16:00 +17°C° 0 mm 2 m/s 757 mmHg 71%
    17:00 +16°C° 0 mm 2 m/s 757 mmHg 73%
    18:00 +15°C° 0 mm 2 m/s 758 mmHg 75%
    19:00 +15°C° 0 mm 2 m/s 758 mmHg 76%
    20:00 +14°C° 0 mm 2 m/s 758 mmHg 79%
    21:00 +13°C° 0 mm 2 m/s 758 mmHg 82%
    22:00 +13°C° 0 mm 2 m/s 758 mmHg 85%
    23:00 +12°C° 0 mm 2 m/s 758 mmHg 88%

    Poimâine, 24 Mai, Joi

    Timp Temperatura Precipitaţii Vânt Presiune Umiditate
    00:00 +10°C° 0 mm 2 m/s 758 mmHg 91%
    01:00 +9°C° 0 mm 2 m/s 758 mmHg 94%
    02:00 +8°C° 0 mm 2 m/s 758 mmHg 95%
    03:00 +8°C° 0 mm 2 m/s 758 mmHg 95%
    04:00 +8°C° 0 mm 2 m/s 758 mmHg 96%
    05:00 +7°C° 0 mm 2 m/s 758 mmHg 95%
    06:00 +7°C° 0 mm 2 m/s 758 mmHg 95%
    07:00 +7°C° 0 mm 2 m/s 758 mmHg 95%
    08:00 +9°C° 0 mm 3 m/s 758 mmHg 88%
    09:00 +11°C° 0 mm 3 m/s 758 mmHg 80%
    10:00 +13°C° 0 mm 3 m/s 759 mmHg 73%
    11:00 +14°C° 0 mm 4 m/s 758 mmHg 68%
    12:00 +15°C° 0 mm 4 m/s 758 mmHg 63%
    13:00 +17°C° 0 mm 4 m/s 757 mmHg 58%
    14:00 +17°C° 0 mm 4 m/s 757 mmHg 59%
    15:00 +17°C° 0 mm 4 m/s 757 mmHg 61%
    16:00 +17°C° 0 mm 4 m/s 757 mmHg 63%
    17:00 +14°C° 0 mm 4 m/s 757 mmHg 70%
    18:00 +12°C° 0 mm 4 m/s 757 mmHg 77%
    19:00 +10°C° 0 mm 3 m/s 758 mmHg 84%
    20:00 +10°C° 0 mm 3 m/s 758 mmHg 86%
    21:00 +9°C° 0 mm 3 m/s 758 mmHg 89%
    22:00 +9°C° 0 mm 3 m/s 759 mmHg 91%
    23:00 +9°C° 0 mm 3 m/s 759 mmHg 92%

    25 Mai, Vineri

    Timp Temperatura Precipitaţii Vânt Presiune Umiditate
    00:00 +8°C° 0 mm 2 m/s 758 mmHg 93%
    01:00 +8°C° 0 mm 2 m/s 758 mmHg 93%
    02:00 +8°C° 0 mm 2 m/s 758 mmHg 93%
    03:00 +7°C° 0 mm 2 m/s 758 mmHg 93%
    04:00 +7°C° 0 mm 2 m/s 758 mmHg 93%
    05:00 +7°C° 0 mm 2 m/s 758 mmHg 93%
    06:00 +7°C° 0 mm 2 m/s 758 mmHg 93%
    07:00 +6°C° 0 mm 2 m/s 758 mmHg 93%
    08:00 +8°C° 0 mm 2 m/s 759 mmHg 86%
    09:00 +10°C° 0 mm 2 m/s 759 mmHg 78%
    10:00 +13°C° 0 mm 2 m/s 759 mmHg 71%
    11:00 +15°C° 0 mm 2 m/s 758 mmHg 67%
    12:00 +16°C° 0 mm 2 m/s 758 mmHg 63%
    13:00 +18°C° 0 mm 2 m/s 757 mmHg 59%
    14:00 +18°C° 0 mm 2 m/s 757 mmHg 60%
    15:00 +18°C° 0 mm 2 m/s 756 mmHg 61%
    16:00 +18°C° 0 mm 2 m/s 756 mmHg 62%
    17:00 +16°C° 0 mm 1 m/s 756 mmHg 69%
    18:00 +14°C° 0 mm 1 m/s 757 mmHg 75%
    19:00 +12°C° 0 mm 1 m/s 757 mmHg 82%
    20:00 +11°C° 0 mm 1 m/s 757 mmHg 83%
    21:00 +11°C° 0 mm 1 m/s 757 mmHg 85%
    22:00 +11°C° 0 mm 1 m/s 757 mmHg 86%
    23:00 +9°C° 0 mm 2 m/s 757 mmHg 87%

    26 Mai, Sâmbătă

    Timp Temperatura Precipitaţii Vânt Presiune Umiditate
    00:00 +9°C° 0 mm 2 m/s 757 mmHg 88%
    01:00 +8°C° 0 mm 2 m/s 757 mmHg 89%
    02:00 +8°C° 0 mm 2 m/s 757 mmHg 90%
    03:00 +8°C° 0 mm 2 m/s 757 mmHg 91%
    04:00 +8°C° 0 mm 2 m/s 757 mmHg 91%
    05:00 +7°C° 0 mm 2 m/s 757 mmHg 92%
    06:00 +7°C° 0 mm 3 m/s 757 mmHg 92%
    07:00 +7°C° 0 mm 3 m/s 757 mmHg 93%
    08:00 +9°C° 0 mm 3 m/s 757 mmHg 86%
    09:00 +11°C° 0 mm 3 m/s 757 mmHg 80%
    10:00 +13°C° 0 mm 4 m/s 757 mmHg 73%
    11:00 +14°C° 0 mm 4 m/s 756 mmHg 67%
    12:00 +17°C° 0 mm 4 m/s 756 mmHg 61%
    13:00 +19°C° 0 mm 3 m/s 755 mmHg 56%
    14:00 +19°C° 0 mm 3 m/s 755 mmHg 56%
    15:00 +19°C° 0 mm 3 m/s 755 mmHg 57%
    16:00 +19°C° 0 mm 2 m/s 754 mmHg 58%
    17:00 +17°C° 0 mm 3 m/s 754 mmHg 62%
    18:00 +16°C° 0 mm 3 m/s 754 mmHg 66%
    19:00 +13°C° 0 mm 3 m/s 755 mmHg 69%
    20:00 +13°C° 0 mm 3 m/s 754 mmHg 69%
    21:00 +13°C° 0 mm 3 m/s 754 mmHg 69%
    22:00 +13°C° 0 mm 3 m/s 754 mmHg 69%
    23:00 +13°C° 0 mm 3 m/s 754 mmHg 68%

    27 Mai, Duminică

    Timp Temperatura Precipitaţii Vânt Presiune Umiditate
    00:00 +13°C° 0 mm 4 m/s 754 mmHg 66%
    01:00 +13°C° 0 mm 4 m/s 754 mmHg 65%
    02:00 +13°C° 0 mm 4 m/s 753 mmHg 66%
    03:00 +13°C° 0 mm 4 m/s 753 mmHg 66%
    04:00 +13°C° 0 mm 4 m/s 752 mmHg 67%
    05:00 +12°C° 0,2 mm 4 m/s 753 mmHg 71%
    06:00 +12°C° 0,2 mm 3 m/s 753 mmHg 75%
    07:00 +11°C° 0,2 mm 3 m/s 753 mmHg 79%
    08:00 +12°C° 0,9 mm 3 m/s 753 mmHg 81%
    09:00 +13°C° 0,9 mm 3 m/s 753 mmHg 84%
    10:00 +13°C° 0,9 mm 3 m/s 753 mmHg 86%
    11:00 +14°C° 0,5 mm 4 m/s 753 mmHg 85%
    12:00 +15°C° 0,5 mm 4 m/s 752 mmHg 85%
    13:00 +15°C° 0,5 mm 5 m/s 752 mmHg 84%
    14:00 +17°C° 0,1 mm 4 m/s 752 mmHg 84%
    15:00 +17°C° 0,1 mm 4 m/s 752 mmHg 83%
    16:00 +17°C° 0,1 mm 3 m/s 751 mmHg 82%
    17:00 +16°C° 0,5 mm 3 m/s 752 mmHg 86%
    18:00 +15°C° 0,5 mm 2 m/s 752 mmHg 89%
    19:00 +14°C° 0,5 mm 1 m/s 752 mmHg 92%
    20:00 +14°C° 0,1 mm 1 m/s 753 mmHg 92%
    21:00 +13°C° 0,1 mm 1 m/s 753 mmHg 92%
    22:00 +13°C° 0,1 mm 1 m/s 753 mmHg 92%
    23:00 +13°C° 0 mm 1 m/s 753 mmHg 93%
    Arată mai mult